New York Downtown Manhattan/w, NY

2:47 AM EDT on June 28, 2017 (GMT -0400)
New York Downtown Manhattan/w

Weather History for KJRB - January, 2014

Change the Weather History Date:

Sunday, January 19, 2014

  Actual Average (KEWR) Record (KEWR)
Temperature  
Mean Temperature 32 °F -  
Max Temperature 37 °F 37 °F 64 °F (1951)
Min Temperature 26 °F 22 °F -2 °F (1994)
Degree Days  
Heating Degree Days 34    
Moisture  
Dew Point 21 °F    
Average Humidity 66    
Maximum Humidity 74    
Minimum Humidity 52    
Precipitation  
Precipitation 0.00 in - - ()
Sea Level Pressure  
Sea Level Pressure 29.77 in    
Wind  
Wind Speed 10 mph (West)    
Max Wind Speed 21 mph    
Max Gust Speed 30 mph    
Visibility 10 miles    
Events      
Averages and records for this station are not official NWS values.
T = Trace of Precipitation, MM = Missing Value Source: NWS Daily Summary

Daily Weather History Graph

Daily Weather History Graph

Search for Another Location

Airport or City:

Trip Planner

Search our weather history database for the weather conditions in past years. The results will help you decide how hot, cold, wet, or windy it might be!

Date:

Astronomy

Jan. 19, 2014 Rise Set
Actual Time 7:15 AM EST 4:58 PM EST
Civil Twilight 6:46 AM EST 5:27 PM EST
Nautical Twilight 6:12 AM EST 6:01 PM EST
Astronomical Twilight 5:39 AM EST 6:34 PM EST
Moon 8:35 PM EST (1/19) 8:43 AM EST (1/19)
Length of Visible Light 10h 41m
Length of Day
9h 42m
Waning Gibbous, 89% of the Moon is Illuminated
Jan 19
Waning Gibbous
Jan 24
Last Quarter
Jan 30
New
Feb 6
First Quarter
Feb 14
Full

Hourly Weather History & Observations

Time (EST) Temp. Windchill Dew Point Humidity Pressure Visibility Wind Dir Wind Speed Gust Speed Precip Events Conditions
12:15 AM 28.4 °F 23.3 °F 21.2 °F 74% 29.85 in 10.0 mi West 4.6 mph - N/A   Partly Cloudy
12:35 AM 28.4 °F - 21.2 °F 74% 29.84 in 10.0 mi Calm Calm - N/A   Clear
12:55 AM 28.4 °F 21.2 °F 21.2 °F 74% 29.84 in 10.0 mi West 6.9 mph - N/A   Clear
1:15 AM 28.4 °F 21.2 °F 21.2 °F 74% 29.84 in 10.0 mi WSW 6.9 mph - N/A   Clear
1:35 AM 28.4 °F 19.7 °F 21.2 °F 74% 29.85 in 10.0 mi West 9.2 mph - N/A   Clear
1:55 AM 28.4 °F 18.0 °F 19.4 °F 69% 29.85 in 10.0 mi West 12.7 mph - N/A   Clear
2:15 AM 26.6 °F 15.2 °F 19.4 °F 74% 29.87 in 10.0 mi West 13.8 mph - N/A   Clear
2:35 AM 26.6 °F 16.8 °F 19.4 °F 74% 29.87 in 10.0 mi West 10.4 mph - N/A   Clear
2:55 AM 26.6 °F 17.5 °F 17.6 °F 69% 29.86 in 10.0 mi West 9.2 mph 16.1 mph N/A   Clear
3:15 AM 26.6 °F 17.5 °F 19.4 °F 74% 29.85 in 10.0 mi West 9.2 mph - N/A   Clear
3:35 AM 26.6 °F 16.8 °F 19.4 °F 74% 29.85 in 10.0 mi West 10.4 mph - N/A   Mostly Cloudy
3:55 AM 26.6 °F 18.2 °F 17.6 °F 69% 29.85 in 10.0 mi West 8.1 mph 17.3 mph N/A   Overcast
4:15 AM 26.6 °F 16.2 °F 17.6 °F 69% 29.84 in 10.0 mi West 11.5 mph 16.1 mph N/A   Overcast
4:35 AM 26.6 °F 16.2 °F 17.6 °F 69% 29.85 in 10.0 mi West 11.5 mph 17.3 mph N/A   Mostly Cloudy
4:55 AM 26.6 °F 16.2 °F 17.6 °F 69% 29.84 in 10.0 mi West 11.5 mph 17.3 mph N/A   Overcast
5:15 AM 26.6 °F 17.5 °F 17.6 °F 69% 29.84 in 10.0 mi West 9.2 mph 16.1 mph N/A   Overcast
5:35 AM 26.6 °F 17.5 °F 17.6 °F 69% 29.84 in 10.0 mi West 9.2 mph - N/A   Overcast
5:55 AM 26.6 °F 17.5 °F 17.6 °F 69% 29.83 in 10.0 mi West 9.2 mph - N/A   Overcast
6:15 AM 26.6 °F 16.2 °F 17.6 °F 69% 29.84 in 10.0 mi West 11.5 mph - N/A   Overcast
6:35 AM 26.6 °F 16.8 °F 17.6 °F 69% 29.84 in 10.0 mi West 10.4 mph - N/A   Overcast
6:55 AM 26.6 °F 16.2 °F 17.6 °F 69% 29.85 in 10.0 mi West 11.5 mph - N/A   Overcast
7:15 AM 26.6 °F 16.8 °F 17.6 °F 69% 29.85 in 10.0 mi West 10.4 mph - N/A   Scattered Clouds
7:35 AM 26.6 °F 15.7 °F 19.4 °F 74% 29.84 in 10.0 mi WSW 12.7 mph - N/A   Clear
7:55 AM 26.6 °F 15.2 °F 19.4 °F 74% 29.84 in 10.0 mi West 13.8 mph - N/A   Clear
8:15 AM 26.6 °F 16.2 °F 19.4 °F 74% 29.84 in 10.0 mi WSW 11.5 mph - N/A   Clear
8:35 AM 26.6 °F 15.2 °F 19.4 °F 74% 29.85 in 10.0 mi West 13.8 mph 19.6 mph N/A   Scattered Clouds
8:55 AM 26.6 °F 15.7 °F 19.4 °F 74% 29.85 in 10.0 mi WSW 12.7 mph - N/A   Scattered Clouds
9:15 AM 26.6 °F 15.2 °F 19.4 °F 74% 29.85 in 10.0 mi WSW 13.8 mph - N/A   Partly Cloudy
9:35 AM 26.6 °F 15.2 °F 19.4 °F 74% 29.84 in 10.0 mi WSW 13.8 mph 19.6 mph N/A   Mostly Cloudy
9:55 AM 26.6 °F 16.8 °F 19.4 °F 74% 29.84 in 10.0 mi West 10.4 mph - N/A   Overcast
10:15 AM 28.4 °F 18.0 °F 19.4 °F 69% 29.83 in 10.0 mi WSW 12.7 mph 17.3 mph N/A   Overcast
10:35 AM 28.4 °F 18.5 °F 19.4 °F 69% 29.83 in 10.0 mi WSW 11.5 mph 21.9 mph N/A   Mostly Cloudy
10:55 AM 28.4 °F 18.0 °F 19.4 °F 69% 29.82 in 10.0 mi West 12.7 mph 20.7 mph N/A   Overcast
11:15 AM 28.4 °F 17.5 °F 19.4 °F 69% 29.80 in 10.0 mi West 13.8 mph - N/A   Overcast
11:35 AM 30.2 °F 19.8 °F 19.4 °F 64% 29.79 in 10.0 mi West 13.8 mph 20.7 mph N/A   Overcast
11:55 AM 30.2 °F 21.3 °F 19.4 °F 64% 29.77 in 10.0 mi West 10.4 mph 16.1 mph N/A   Overcast
12:15 PM 30.2 °F 20.8 °F 19.4 °F 64% 29.76 in 10.0 mi West 11.5 mph 17.3 mph N/A   Overcast
12:35 PM 30.2 °F 20.8 °F 19.4 °F 64% 29.74 in 10.0 mi West 11.5 mph 17.3 mph N/A   Overcast
12:55 PM 30.2 °F 21.9 °F 19.4 °F 64% 29.74 in 10.0 mi West 9.2 mph - N/A   Overcast
1:15 PM 32.0 °F 24.2 °F 17.6 °F 55% 29.72 in 10.0 mi West 9.2 mph - N/A   Mostly Cloudy
1:35 PM 33.8 °F 25.8 °F 17.6 °F 52% 29.70 in 10.0 mi West 10.4 mph - N/A   Clear
1:55 PM 35.6 °F 27.5 °F 19.4 °F 52% 29.69 in 10.0 mi WSW 11.5 mph - N/A   Clear
2:15 PM 35.6 °F 26.6 °F 19.4 °F 52% 29.70 in 10.0 mi West 13.8 mph 19.6 mph N/A   Scattered Clouds
2:35 PM 35.6 °F 25.9 °F 21.2 °F 56% 29.70 in 10.0 mi West 16.1 mph 19.6 mph N/A   Overcast
2:55 PM 35.6 °F 26.6 °F 21.2 °F 56% 29.70 in 10.0 mi West 13.8 mph 19.6 mph N/A   Overcast
3:15 PM 37.4 °F 28.5 °F 21.2 °F 52% 29.69 in 10.0 mi West 15.0 mph - N/A   Mostly Cloudy
3:35 PM 37.4 °F 27.5 °F 23.0 °F 56% 29.69 in 10.0 mi West 18.4 mph 25.3 mph N/A   Partly Cloudy
3:55 PM 37.4 °F 26.9 °F 23.0 °F 56% 29.68 in 10.0 mi West 20.7 mph 27.6 mph N/A   Partly Cloudy
4:15 PM 37.4 °F 27.2 °F 23.0 °F 56% 29.69 in 10.0 mi West 19.6 mph 29.9 mph N/A   Partly Cloudy
4:35 PM 37.4 °F 27.2 °F 23.0 °F 56% 29.70 in 10.0 mi West 19.6 mph 27.6 mph N/A   Clear
4:55 PM 37.4 °F 26.9 °F 23.0 °F 56% 29.69 in 10.0 mi West 20.7 mph 25.3 mph N/A   Clear
5:15 PM 35.6 °F 24.8 °F 23.0 °F 60% 29.69 in 10.0 mi West 19.6 mph 29.9 mph N/A   Clear
5:35 PM 35.6 °F 25.9 °F 23.0 °F 60% 29.70 in 10.0 mi West 16.1 mph 24.2 mph N/A   Clear
5:55 PM 35.6 °F 25.9 °F 23.0 °F 60% 29.71 in 10.0 mi West 16.1 mph 23.0 mph N/A   Clear
6:15 PM 35.6 °F 26.6 °F 24.8 °F 65% 29.71 in 10.0 mi West 13.8 mph 23.0 mph N/A   Clear
6:35 PM 35.6 °F 27.1 °F 24.8 °F 65% 29.71 in 10.0 mi West 12.7 mph 18.4 mph N/A   Clear
6:55 PM 35.6 °F 27.5 °F 24.8 °F 65% 29.71 in 10.0 mi West 11.5 mph - N/A   Clear
7:15 PM 35.6 °F 28.0 °F 24.8 °F 65% 29.70 in 10.0 mi West 10.4 mph - N/A   Clear
7:35 PM 35.6 °F 27.1 °F 24.8 °F 65% 29.70 in 10.0 mi WSW 12.7 mph - N/A   Partly Cloudy
7:55 PM 35.6 °F 28.0 °F 26.6 °F 70% 29.70 in 10.0 mi West 10.4 mph - N/A   Mostly Cloudy
8:15 PM 37.4 °F 30.3 °F 26.6 °F 65% 29.69 in 10.0 mi West 10.4 mph - N/A   Overcast
8:35 PM 37.4 °F 29.8 °F 26.6 °F 65% 29.69 in 10.0 mi West 11.5 mph - N/A   Mostly Cloudy
8:55 PM 37.4 °F 28.5 °F 26.6 °F 65% 29.69 in 10.0 mi West 15.0 mph - N/A   Partly Cloudy
9:15 PM 37.4 °F 28.9 °F 26.6 °F 65% 29.69 in 10.0 mi West 13.8 mph 19.6 mph N/A   Clear
9:35 PM 37.4 °F 28.9 °F 26.6 °F 65% 29.69 in 10.0 mi West 13.8 mph - N/A   Clear
9:55 PM 37.4 °F 29.8 °F 26.6 °F 65% 29.69 in 10.0 mi West 11.5 mph - N/A   Clear
10:15 PM 37.4 °F 28.9 °F 24.8 °F 60% 29.69 in 10.0 mi West 13.8 mph - N/A   Clear
10:35 PM 37.4 °F 29.3 °F 24.8 °F 60% 29.68 in 10.0 mi West 12.7 mph 19.6 mph N/A   Clear
10:55 PM 37.4 °F 29.8 °F 24.8 °F 60% 29.68 in 10.0 mi West 11.5 mph - N/A   Clear
11:15 PM 37.4 °F 29.8 °F 24.8 °F 60% 29.68 in 10.0 mi West 11.5 mph 19.6 mph N/A   Clear
11:35 PM 37.4 °F 29.3 °F 24.8 °F 60% 29.68 in 10.0 mi West 12.7 mph - N/A   Clear
11:55 PM 37.4 °F 29.3 °F 24.8 °F 60% 29.68 in 10.0 mi West 12.7 mph 17.3 mph N/A   Clear